www.pogodaiklimat.ru
ПОГОДА в Сатенасе
Время
(UTC), дата
04 13.10
05 13.10
06 13.10
07 13.10
08 13.10
09 13.10
10 13.10
11 13.10
12 13.10
13 13.10
14 13.10
15 13.10
16 13.10
17 13.10
18 13.10
19 13.10
20 13.10
21 13.10
22 13.10
23 13.10
00 14.10
01 14.10
02 14.10
03 14.10
04 14.10
05 14.10
06 14.10
07 14.10
08 14.10
09 14.10
10 14.10
11 14.10
12 14.10
13 14.10
14 14.10
15 14.10
16 14.10
17 14.10
18 14.10
19 14.10
20 14.10
21 14.10
22 14.10
23 14.10
00 15.10
01 15.10
02 15.10
03 15.10
04 15.10
05 15.10
06 15.10
07 15.10
08 15.10
09 15.10
10 15.10
11 15.10
12 15.10
13 15.10
14 15.10
15 15.10
16 15.10
17 15.10
18 15.10
19 15.10
20 15.10
21 15.10
22 15.10
23 15.10
00 16.10
01 16.10
02 16.10
03 16.10
04 16.10
05 16.10
06 16.10
07 16.10
08 16.10
09 16.10
10 16.10
11 16.10
12 16.10
13 16.10
14 16.10
15 16.10
16 16.10
17 16.10
18 16.10
19 16.10
20 16.10
21 16.10
22 16.10
23 16.10
00 17.10
01 17.10
02 17.10
03 17.10
04 17.10
05 17.10
06 17.10
07 17.10
08 17.10
09 17.10
10 17.10
11 17.10
12 17.10
13 17.10
14 17.10
15 17.10
16 17.10
17 17.10
18 17.10
19 17.10
20 17.10
21 17.10
22 17.10
23 17.10
00 18.10
01 18.10
02 18.10
03 18.10
04 18.10
05 18.10
06 18.10
09 18.10
10 18.10
11 18.10
12 18.10
13 18.10
14 18.10
15 18.10
16 18.10
17 18.10
18 18.10
19 18.10
20 18.10
21 18.10
22 18.10
23 18.10
00 19.10
01 19.10
02 19.10
03 19.10
04 19.10
05 19.10
06 19.10
07 19.10
08 19.10
09 19.10
10 19.10
11 19.10
12 19.10
13 19.10
14 19.10
15 19.10
16 19.10
17 19.10
18 19.10
19 19.10
20 19.10
21 19.10
22 19.10
23 19.10
00 20.10
01 20.10
02 20.10
03 20.10
04 20.10
05 20.10
Ветер
(напр.,м/с)
Видим. Явления Облачность Т
(С)
Тd
(С)
f
(%)
Тe
(С)
Тes
(С)
Комфортность P
(гПа)
Po
(гПа)
Тmin
(С)
Tmax
(С)
R
(мм)
R24
(мм)
S
(см)
ЮЗ 5-6
{6}
30 км ясно +8.7 +8.2 97 +5 +5 тепло 1005.0 998.4
ЮЗ 5-6
{6}
30 км ясно +8.4 +8.0 97 +5 +5 тепло 1005.6 999.0
Ю 4-6
{7}
30 км ясно +8.6 +8.0 96 +5 +5 тепло 1006.3 999.6 +7.6 +11.3
Ю 3-4
{5}
21 км ясно +8.2 +8.0 99 +5 +5 тепло 1007.1 1000.4
Ю 4-5
{5}
26 км ясно +9.4 +9.3 99 +6 +7 тепло 1007.5 1000.9
ЮЗ 4-5
{5}
26 км 1/0
[]
+10.9 +10.4 97 +8 +9 тепло 1008.0 1001.4
ЮЗ 5-6
{7}
40 км 4/4 750 м
[]
+12.2 +10.1 87 +10 +11 тепло 1008.4 1001.8
ЮЗ 5-7
{9}
35 км 10/10 870 м
[]
+11.7 +9.5 86 +9 +9 тепло 1008.8 1002.2
ЮЗ 4-5
{7}
30 км слаб. ливневой дождь 10/10 800 м
[]
+11.9 +10.1 89 +10 +10 тепло 1009.0 1002.4 0.0
ЮЗ 3-4
{6}
45 км 8/8 960 м
[]
+12.3 +10.1 86 +11 +11 тепло 1009.5 1002.9
ЮЗ 4-4
{5}
40 км 4/4 800 м
[]
+12.0 +9.7 86 +10 +10 тепло 1009.5 1002.9
ЮЗ 3-4
{5}
45 км 1/0
[]
+11.6 +9.6 88 +10 +10 тепло 1009.5 1002.9
Ю 2-3
{4}
45 км ясно +10.3 +9.2 93 +9 +9 тепло 1009.0 1002.4
ЮВ 2-2
{3}
45 км ясно +9.4 +8.6 95 +8 +8 тепло 1008.6 1002.0
ЮВ 3-4
{4}
45 км 3/0
[]
+9.6 +8.9 95 +7 +7 тепло 1008.1 1001.5 +7.6 +12.9 0.0
ЮВ 3-4
{4}
45 км ясно +8.9 +8.4 97 +6 +6 тепло 1007.6 1001.0
В 4-5
{5}
45 км 1/1 1500 м
[]
+9.6 +8.9 95 +7 +7 тепло 1006.1 999.5
ЮВ 3-5
{5}
11 км слаб. дождь ?/? +9.1 +8.9 99 +6 +6 тепло 1005.2 998.6 0.4
ЮВ 3-5
{5}
12 км слаб. дождь 10/10 1260 м
[]
+9.0 +9.0 100 +6 +6 тепло 1004.2 997.6 1
СВ 4-6
{6}
22 км слаб. дождь 10/10 1170 м
[]
+8.9 +8.9 100 +6 +6 тепло 1002.3 995.7 2
СВ 4-7
{7}
20 км слаб. дождь ?/? +8.7 +8.7 100 +5 +5 тепло 1001.2 994.6 1
В 8-10
{11}
5000 м слаб. дождь 10/10 180 м
[]
+8.6 +8.6 100 +4 +4 по сезону 998.7 992.1 0.9
В 5-8
{11}
19 км слаб. дождь 10/10 180 м
[]
+8.6 +8.6 100 +5 +5 тепло 997.7 991.1 0.2
В 3-6
{7}
9000 м морось {ливн. осадки, дождь} 10/10 90 м
[]
+8.4 +8.4 100 +6 +6 тепло 997.1 990.5 1
ЮВ 1-2
{5}
22 км в посл. час морось {ливн. осадки, дождь} 10/10 180 м
[]
+8.7 +8.7 100 +8 +8 тепло 996.6 990.0 0.0
ЮВ 2-2
{2}
3500 м слаб. дождь {морось} 9/5 90 м
[Frnb As op]
+8.9 +8.9 100 +7 +7 тепло 996.4 989.8 0.8
С 2-2
{2}
6000 м дождь {морось} 10/9 60 м
[Frnb]
+8.8 +8.8 100 +7 +7 тепло 997.2 990.6 +8.4 +9.8 0.2
С 4-5
{5}
7000 м дождь {морось} 10/9 90 м
[Frnb]
+9.4 +9.4 100 +6 +6 тепло 998.6 992.0 0.8
С 9-11
{11}
5000 м слаб. морось {дождь} 10/9 150 м
[Frnb]
+9.1 +9.1 100 +4 +4 по сезону 1000.9 994.3 0.0
С 9-13
{14}
6000 м слаб. морось {дождь} 10/9 120 м
[Frnb]
+8.7 +8.7 100 +4 +4 по сезону 1003.7 997.1 0.0
С 9-12
{13}
7000 м слаб. морось {дождь} 10/9 120 м
[Frnb]
+8.1 +8.1 100 +3 +3 по сезону 1007.1 1000.4 0.3
С 7-11
{13}
17 км слаб. морось {дождь} 10/9 210 м
[Sc]
+8.3 +8.0 98 +4 +4 по сезону 1009.4 1002.7
С 6-7
{10}
60 км в посл. час морось {дождь} 10/9 500 м
[Sc]
+9.0 +7.8 92 +5 +5 тепло 1011.1 1004.4 1
С 4-6
{7}
60 км 10/9 540 м
[Sc]
+9.5 +7.9 90 +7 +7 тепло 1012.5 1005.8
С 4-5
{6}
70 км 9/9 720 м
[Sc]
+9.6 +7.9 89 +7 +7 тепло 1013.0 1006.3
С 2-4
{6}
50 км 10/10 750 м
[]
+9.3 +8.0 92 +8 +8 тепло 1014.1 1007.4
СЗ 1-2
{4}
50 км 10/10 720 м
[]
+9.0 +7.3 89 +8 +8 тепло 1014.9 1008.2
СЗ 2-2
{2}
50 км 10/10 750 м
[]
+8.5 +7.2 92 +7 +7 тепло 1016.0 1009.3
штиль 0-1
{2}
50 км 10/10 720 м
[]
+8.3 +7.1 92 +7 +7 тепло 1016.5 1009.8 +8.0 +9.7 1
В 1-2
{2}
50 км 10/10 720 м
[]
+8.3 +7.2 93 +7 +7 тепло 1016.7 1010.0
В 2-2
{2}
50 км 10/10 720 м
[]
+8.0 +7.5 97 +6 +6 тепло 1016.8 1010.1
В 1-2
{2}
50 км 10/10 800 м
[]
+7.8 +7.7 99 +7 +7 тепло 1016.9 1010.2
В 2-2
{2}
50 км 10/10 800 м
[]
+8.0 +7.8 99 +6 +6 тепло 1017.1 1010.4
В 2-2
{3}
50 км 10/10 800 м
[]
+8.0 +7.9 99 +6 +6 тепло 1017.2 1010.5
В 3-3
{3}
50 км 10/10 750 м
[]
+8.2 +8.0 99 +5 +5 тепло 1017.1 1010.4
В 2-3
{4}
50 км 10/10 700 м
[]
+8.0 +7.7 98 +6 +6 тепло 1017.2 1010.5
СВ 2-3
{3}
50 км 10/10 930 м
[]
+7.4 +7.3 99 +5 +5 тепло 1016.6 1009.9
В 4-5
{5}
50 км 9/9 720 м
[]
+7.7 +7.6 99 +4 +4 по сезону 1015.8 1009.1
В 4-6
{6}
50 км 10/10 600 м
[]
+7.9 +7.7 99 +4 +4 по сезону 1015.2 1008.5
В 4-6
{6}
50 км 10/9 480 м
[Sc]
+7.8 +7.7 99 +4 +4 по сезону 1014.9 1008.2
В 5-7
{7}
20 км слаб. дождь 10/0 500 м
[As op]
+8.1 +7.8 98 +4 +4 по сезону 1013.6 1006.9 +7.4 +8.7 0.0
В 5-7
{8}
17 км слаб. дождь 10/6 540 м
[Sc As op]
+8.2 +8.0 99 +4 +4 по сезону 1013.7 1007.0 0.5
СВ 4-7
{9}
9000 м дождь 10/8 330 м
[Sc As op]
+8.0 +8.0 100 +4 +4 по сезону 1014.4 1007.7 0.9
В 7-9
{9}
15 км слаб. дождь 10/4 210 м
[Frnb As op]
+8.0 +8.0 100 +3 +3 по сезону 1012.1 1005.4 1
СВ 6-9
{9}
9000 м дождь 10/6 180 м
[Frnb As op]
+8.3 +8.3 100 +4 +4 по сезону 1013.1 1006.4 1
В 6-9
{9}
17 км слаб. дождь 10/5 180 м
[Frnb As op]
+8.4 +8.4 100 +4 +4 по сезону 1012.2 1005.5 0.2
В 6-9
{10}
50 км слаб. морось {дождь} 10/8 210 м
[Frnb As op]
+8.7 +8.7 100 +5 +5 тепло 1011.3 1004.6 0.0
В 6-8
{8}
50 км в посл. час морось {дождь} 10/10 210 м
[Sc]
+9.0 +9.0 100 +5 +5 тепло 1010.3 1003.6
В 6-8
{8}
50 км {дождь, морось} 10/10 180 м
[Frnb]
+9.4 +9.4 100 +5 +5 тепло 1009.3 1002.7
В 5-7
{7}
45 км 10/10 210 м
[]
+9.9 +9.9 100 +7 +7 тепло 1008.6 1002.0
В 5-6
{8}
45 км 10/10 180 м
[]
+9.8 +9.8 100 +6 +6 тепло 1008.1 1001.5
СВ 3-4
{6}
45 км 10/10 210 м
[]
+9.8 +9.8 100 +7 +7 тепло 1008.5 1001.9
СВ 3-4
{4}
40 км 10/10 240 м
[]
+9.6 +9.6 100 +7 +7 тепло 1008.6 1002.0 +7.9 +9.9 4
В 4-6
{6}
28 км 10/10 420 м
[]
+9.6 +9.6 100 +7 +7 тепло 1008.1 1001.5
В 4-5
{7}
19 км 10/10 570 м
[]
+10.1 +10.1 100 +7 +7 тепло 1008.1 1001.5
В 4-6
{6}
11 км 10/10 400 м
[]
+10.4 +10.4 100 +8 +8 тепло 1007.9 1001.3
В 4-5
{6}
4100 м дымка 10/10 120 м
[]
+10.4 +10.4 100 +8 +8 тепло 1007.6 1001.0
В 3-4
{5}
3500 м дымка 10/10 330 м
[]
+10.5 +10.5 100 +8 +8 тепло 1007.5 1000.9
ЮВ 3-5
{5}
7000 м дымка 10/10 800 м
[]
+10.6 +10.6 100 +8 +8 тепло 1007.0 1000.4
ЮВ 3-4
{5}
7000 м дымка 10/10 120 м
[]
+10.6 +10.6 100 +8 +8 тепло 1006.5 999.9
В 1-2
{4}
6000 м дымка 10/10 150 м
[]
+10.4 +10.4 100 +10 +10 тепло 1006.5 999.9
В 1-2
{2}
6000 м дымка 10/10 450 м
[]
+10.5 +10.5 100 +10 +10 тепло 1006.4 999.8
В 1-2
{3}
6000 м дымка 10/10 180 м
[]
+10.4 +10.4 100 +10 +10 тепло 1006.2 999.6
СВ 1-1
{2}
5000 м слаб. морось 10/3 180 м
[Frnb As op]
+10.3 +10.3 100 +10 +10 тепло 1006.3 999.7
СВ 2-2
{2}
1800 м слаб. морось ?/? +10.3 +10.3 100 +9 +9 тепло 1006.1 999.5 +9.5 +10.7
СВ 2-2
{2}
1600 м слаб. морось ?/? +10.4 +10.4 100 +9 +9 тепло 1006.3 999.7
В 2-3
{4}
2000 м слаб. морось ?/? +10.7 +10.7 100 +9 +9 тепло 1005.9 999.3
СВ 2-2
{3}
1500 м слаб. морось ?/? +10.9 +10.9 100 +9 +9 тепло 1006.0 999.4
В 2-3
{3}
5000 м слаб. морось 10/10 90 м
[Frnb]
+11.2 +11.2 100 +10 +10 тепло 1006.0 999.4
СВ 2-3
{3}
15 км в посл. час морось 10/9 120 м
[Sc]
+11.7 +11.7 100 +10 +11 тепло 1005.7 999.1
С 3-4
{4}
8000 м слаб. морось 10/9 90 м
[St]
+11.0 +11.0 100 +9 +9 тепло 1005.7 999.1
СВ 3-5
{5}
3000 м дождь {морось} 10/9 60 м
[St]
+10.8 +10.8 100 +9 +9 тепло 1005.5 998.9 0.0
СВ 3-4
{5}
3000 м дождь {морось} 10/10 60 м
[St]
+10.8 +10.8 100 +9 +9 тепло 1005.4 998.8 0.0
С 2-3
{4}
10 км дымка {ливн. осадки} 10/10 150 м
[]
+10.8 +10.8 100 +9 +9 тепло 1005.2 998.6
СВ 2-2
{3}
15 км {ливн. осадки, дымка} 10/10 150 м
[]
+10.7 +10.7 100 +9 +9 тепло 1005.4 998.8
СВ 2-3
{3}
11 км {ливн. осадки, дымка} 10/10 180 м
[]
+10.8 +10.8 100 +9 +9 тепло 1005.5 998.9
В 2-3
{4}
5000 м дымка {ливн. осадки} 10/10 180 м
[]
+10.6 +10.6 100 +9 +9 тепло 1005.5 998.9 +10.3 +11.9 0.0
СВ 2-2
{3}
4800 м морось {дымка} ?/? +10.5 +10.5 100 +9 +9 тепло 1005.5 998.9 0.0
СВ 2-3
{3}
4900 м морось {дымка} ?/? +10.4 +10.4 100 +9 +9 тепло 1005.8 999.2 0.3
СВ 3-4
{4}
6000 м морось {дымка} 10/10 150 м
[]
+10.2 +10.2 100 +8 +8 тепло 1005.9 999.3 0.2
СВ 3-5
{5}
17 км слаб. дождь {морось} 10/10 150 м
[]
+9.6 +9.6 100 +7 +7 тепло 1006.1 999.5 0.8
СВ 3-4
{5}
30 км слаб. ливневой дождь {морось} 10/10 180 м
[]
+9.3 +9.3 100 +7 +7 тепло 1006.3 999.7 0.1
В 4-5
{5}
24 км слаб. ливневой дождь {морось} 10/10 180 м
[]
+9.1 +9.1 100 +6 +6 тепло 1006.5 999.9 0.0
СВ 3-3
{5}
14 км слаб. ливневой дождь 10/10 180 м
[]
+8.9 +8.9 100 +6 +6 тепло 1006.9 1000.3 0.5
СВ 3-4
{4}
7000 м в посл. час морось {ливн. осадки} 10/10 120 м
[]
+8.7 +8.7 100 +6 +6 тепло 1006.8 1000.2 0.0
В 3-4
{4}
7000 м дымка {ливн. осадки} 10/10 120 м
[]
+8.6 +8.6 100 +6 +6 тепло 1007.0 1000.4
СВ 3-4
{4}
4000 м дымка {ливн. осадки} 10/10 120 м
[]
+8.5 +8.5 100 +6 +6 тепло 1007.0 1000.3
СВ 3-4
{4}
10 км в посл. час морось 10/9 90 м
[Frnb]
+8.3 +8.3 100 +5 +5 тепло 1007.2 1000.5
В 2-3
{4}
10 км {морось} 10/9 90 м
[Frnb As op]
+8.3 +8.3 100 +6 +6 тепло 1007.5 1000.8 +8.3 +10.6 2
В 4-6
{6}
10 км 10/9 90 м
[Frnb]
+8.1 +8.1 100 +5 +5 тепло 1007.7 1001.0
В 3-5
{6}
10 км 10/10 90 м
[Frnb]
+8.4 +8.4 100 +6 +6 тепло 1008.2 1001.5
В 4-5
{5}
12 км 10/10 120 м
[Frnb]
+8.6 +8.6 100 +5 +5 тепло 1008.3 1001.6
В 2-3
{5}
10 км 10/10 120 м
[Frnb]
+8.9 +8.9 100 +7 +7 тепло 1008.5 1001.9
В 2-3
{3}
4500 м слаб. морось 10/9 120 м
[Frnb]
+9.2 +9.2 100 +7 +7 тепло 1008.5 1001.9
СВ 3-4
{4}
25 км в посл. час морось 10/9 90 м
[Frnb]
+9.6 +9.6 100 +7 +7 тепло 1008.3 1001.7
В 3-4
{4}
30 км 10/9 90 м
[Frnb]
+10.1 +10.1 100 +8 +8 тепло 1008.1 1001.5
В 3-4
{4}
13 км слаб. дождь 10/9 120 м
[Frnb]
+10.4 +10.4 100 +8 +8 тепло 1008.0 1001.4
В 3-4
{4}
16 км морось {дождь} 10/10 150 м
[]
+10.3 +10.3 100 +8 +8 тепло 1007.9 1001.3 0.3
В 3-4
{5}
7000 м слаб. морось {дождь} 10/10 150 м
[]
+10.3 +10.3 100 +8 +8 тепло 1007.7 1001.1 0.1
В 3-4
{5}
3800 м слаб. ливневой дождь {морось} 10/10 150 м
[]
+10.5 +10.5 100 +8 +8 тепло 1007.7 1001.1 0.0
ЮВ 3-4
{4}
12 км в посл. час дождь {ливн. осадки, морось} 10/10 180 м
[]
+10.9 +10.9 100 +9 +9 тепло 1007.8 1001.2 +8.1 +10.9 0.0
Ю 3-4
{4}
45 км {дождь} 10/10 240 м
[]
+11.2 +11.2 100 +9 +9 тепло 1007.7 1001.1
Ю 2-3
{4}
35 км 10/10 240 м
[]
+11.0 +11.0 100 +10 +10 тепло 1008.1 1001.5
Ю 3-4
{4}
25 км 10/10 240 м
[]
+10.7 +10.7 100 +8 +8 тепло 1008.1 1001.5
Ю 2-3
{4}
16 км 10/10 1500 м
[]
+10.6 +10.6 100 +9 +9 тепло 1008.3 1001.7
Ю 3-3
{4}
22 км 10/10 1500 м
[]
+10.5 +10.5 100 +8 +8 тепло 1008.5 1001.9
Ю 3-3
{3}
27 км 10/10 1500 м
[]
+10.4 +10.4 100 +8 +8 тепло 1008.5 1001.9
Ю 2-3
{4}
28 км 10/10 1320 м
[]
+10.2 +10.2 100 +9 +9 тепло 1008.6 1002.0
Ю 4-5
{5}
30 км 10/10 1500 м
[]
+10.1 +10.1 100 +7 +7 тепло 1008.6 1002.0
Ю 3-4
{4}
35 км 10/0 2000 м
[]
+9.7 +9.7 100 +7 +7 тепло 1008.5 1001.9
Ю 3-3
{5}
17 км 8/8 120 м
[]
+8.4 +8.4 100 +6 +6 тепло 1008.6 1001.9
ЮЗ 1-1
{5}
10 км 10/9 60 м
[St]
+8.5 +8.5 100 +8 +8 тепло 1008.7 1002.0
Ю 3-4
{4}
500 м туман ?/? +8.3 +8.3 100 +5 +5 тепло 1008.8 1002.1 +8.2 +11.2
ЮВ 1-3
{3}
20 км {туман} 9/5 210 м
[Sc Ac As]
+9.8 +9.8 100 +9 +9 тепло 1008.4 1001.8
В 2-3
{3}
30 км слаб. дождь {туман} 9/1 210 м
[Sc Ac As]
+10.1 +9.9 99 +8 +9 тепло 1007.9 1001.3
В 3-4
{4}
25 км слаб. дождь {туман} 9/3 240 м
[Frnb Ac As]
+9.8 +9.8 100 +7 +8 тепло 1007.4 1000.8 0.0
ЮВ 4-6
{6}
19 км слаб. ливневой дождь {туман} 10/10 1500 м
[]
+9.7 +9.6 99 +7 +7 тепло 1006.5 999.9 0.1
В 5-7
{7}
7000 м дождь {ливн. осадки} 10/10 1080 м
[]
+8.8 +8.8 100 +5 +5 тепло 1005.6 999.0 1
СВ 5-7
{7}
18 км в посл. час дождь {ливн. осадки} 10/10 180 м
[]
+8.7 +8.7 100 +5 +5 тепло 1004.8 998.2 0.8
В 5-7
{7}
30 км {ливн. осадки, дождь} 10/10 180 м
[]
+9.1 +9.1 100 +5 +5 тепло 1004.3 997.7
В 4-5
{7}
30 км {ливн. осадки, дождь} 10/10 600 м
[]
+9.2 +9.2 100 +6 +6 тепло 1003.9 997.3
В 4-5
{6}
27 км {ливн. осадки, дождь} 10/10 900 м
[]
+8.7 +8.7 100 +5 +5 тепло 1003.6 997.0
В 4-5
{5}
20 км {ливн. осадки, дождь} 10/10 700 м
[]
+8.7 +8.7 100 +5 +5 тепло 1002.9 996.3 +8.1 +10.2 2
В 4-5
{5}
16 км слаб. ливневой дождь 10/10 630 м
[]
+9.0 +9.0 100 +6 +6 тепло 1001.7 995.1 0.0
В 5-7
{7}
28 км в посл. час морось {ливн. осадки, дождь} 10/10 1500 м
[]
+9.6 +9.6 100 +6 +6 тепло 1000.8 994.2 0.0
В 5-7
{7}
30 км {ливн. осадки, морось} 10/10 1170 м
[]
+10.4 +10.4 100 +7 +7 тепло 999.6 993.0
В 5-6
{7}
9000 м дождь {ливн. осадки, морось} 10/10 720 м
[]
+10.8 +10.8 100 +8 +8 тепло 998.4 991.9 1
Ю 7-10
{14}
50 км в посл. час дождь {ливн. осадки, морось} 10/10 330 м
[]
+11.6 +11.2 97 +8 +8 тепло 998.4 991.9 0.2
Ю 6-8
{10}
45 км {ливн. осадки, дождь} 10/10 500 м
[]
+10.8 +10.5 98 +7 +7 тепло 998.3 991.8 1
Ю 7-11
{11}
35 км 10/10 400 м
[]
+10.4 +10.2 99 +7 +7 тепло 998.3 991.8
Ю 8-10
{11}
40 км 9/9 500 м
[]
+10.1 +9.9 99 +6 +6 тепло 998.6 992.0
Ю 7-9
{10}
29 км 3/3 660 м
[]
+9.8 +9.5 98 +6 +6 тепло 998.9 992.3
Ю 7-8
{9}
23 км 6/6 600 м
[]
+10.0 +9.7 98 +6 +6 тепло 999.1 992.5
Ю 6-8
{9}
24 км 10/10 600 м
[]
+10.3 +10.0 98 +7 +7 тепло 999.3 992.7
Ю 7-9
{9}
28 км 10/10 660 м
[]
+10.5 +10.1 97 +7 +7 тепло 999.8 993.2 +8.6 +12.0 1
Ю 7-9
{9}
27 км {ливн. осадки} 10/10 600 м
[]
+10.6 +10.1 97 +7 +7 тепло 1000.4 993.8
Ю 8-11
{11}
30 км {ливн. осадки} 9/9 540 м
[]
+11.2 +10.4 95 +7 +7 тепло 1000.9 994.4
ЮЗ 8-10
{11}
26 км в посл. час морось {ливн. осадки} 10/10 630 м
[]
+12.2 +11.2 94 +9 +9 тепло 1001.4 994.9 0.0
ЮЗ 8-11
{11}
30 км {ливн. осадки, морось} 10/10 660 м
[]
+12.4 +11.0 91 +9 +9 тепло 1001.7 995.2
ЮЗ 8-12
{12}
35 км {ливн. осадки, морось} 10/10 750 м
[]
+12.4 +10.6 89 +9 +9 тепло 1002.2 995.7
Ю 8-10
{13}
23 км слаб. ливневой дождь {морось} 8/8 660 м
[]
+12.1 +10.6 91 +9 +9 тепло 1002.8 996.3 0.0
Ю 6-9
{10}
29 км в посл. час дождь {ливн. осадки} 8/8 800 м
[]
+12.0 +11.1 94 +9 +9 тепло 1003.1 996.6 0.0
Ю 7-11
{11}
29 км {ливн. осадки, дождь} 8/8 800 м
[]
+12.0 +10.2 89 +9 +9 тепло 1003.4 996.9
Ю 5-7
{10}
30 км {ливн. осадки, дождь} 4/4 1140 м
[]
+11.7 +10.3 91 +9 +9 тепло 1003.9 997.3
Ю 4-8
{8}
27 км {ливн. осадки, дождь} 5/5 1200 м
[]
+10.8 +10.0 95 +8 +8 тепло 1004.5 997.9
Ю 5-6
{6}
35 км {ливн. осадки, дождь} 6/6 1500 м
[]
+10.4 +9.9 97 +7 +7 тепло 1004.9 998.3
Ю 5-7
{7}
30 км {ливн. осадки, дождь} ясно +9.9 +9.5 97 +7 +7 тепло 1005.3 998.7 +9.8 +12.8 0.1
Ю 4-5
{7}
27 км 1/0 2000 м
[]
+8.9 +8.8 99 +6 +6 тепло 1005.8 999.2
ЮВ 3-4
{5}
30 км 10/10 500 м
[]
+9.4 +9.3 99 +7 +7 тепло 1006.2 999.6
ЮВ 3-5
{5}
30 км 9/9 600 м
[]
+9.8 +9.7 99 +7 +7 тепло 1006.4 999.8
ЮВ 3-4
{5}
24 км 10/10 150 м
[]
+10.0 +10.0 100 +8 +8 тепло 1006.4 999.8
ЮВ 3-4
{5}
12 км слаб. ливневой дождь 10/10 930 м
[]
+9.8 +9.8 100 +7 +7 тепло 1006.1 999.5 0.1
ЮВ 4-5
{5}
16 км слаб. дождь {морось} 10/10 1500 м
[]
+9.8 +9.8 100 +7 +7 тепло 1005.7 999.1 0.2
В 4-5
{5}
14 км слаб. дождь {морось} 10/10 210 м
[]
+9.7 +9.7 100 +7 +7 тепло 1005.4 998.8 0.8
В 4-6
{6}
20 км слаб. дождь {морось} 10/10 210 м
[]
+9.7 +9.7 100 +7 +7 тепло 1005.2 998.6 1
ЮВ 4-6
{6}
19 км слаб. ливневой дождь {морось} 10/10 360 м
[]
+9.8 +9.8 100 +7 +7 тепло 1005.1 998.5 0.6
ЮВ 4-5
{6}
50 км в посл. час дождь {ливн. осадки, морось} 10/10 330 м
[]
+10.0 +10.0 100 +7 +7 тепло 1005.2 998.6 0.0
Ю 4-5
{5}
50 км {ливн. осадки, дождь} 9/9 420 м
[]
+9.9 +9.9 100 +7 +7 тепло 1005.8 999.2
Местоположение метеостанции Сатенас (Швеция): широта 58.43 долгота 12.72 высота над уровнем моря 54 м.
В архиве по умолчанию представлена погода в Сатенасе за последнюю неделю. Архивные данные за месяц целиком и за предыдущие месяцы, начиная с января 2011 года, Вы можете получить, выбрав интересующий диапазон дат из раскрывающегося списка и нажав кнопку "Найти!".
*Определитесь, кто Вы:
Внимание! Время в таблицах - всемирное. Для получения местного времени необходимо прибавить поправку, которая равна 1 ч.
Смотрите также архив погоды в соседних городах и на ближайших метеорологических станциях:
Партнеры нашего сайта:      
Пояснения к столбцам:
  • Ветер - указаны скорость ветра в м/с - средняя за 10 мин, порывы в срок и между сроками (в фигурных скобках) и направление, откуда дует ветер: С - северный,
  • СВ - северо-восточный, В - восточный, ЮВ - юго-восточный, Ю - южный, ЮЗ - юго-западный, З - западный, СЗ - северо-западный.
  • Видимость - горизонтальная дальность видимости в метрах или километрах. При видимости от 1 до 10 км при отсутствии осадков обычно наблюдается дымка, при ухудшении видимости до 1 км и менее - туман. В сухую погоду видимость может ухудшаться дымом, пылью или мглою.
  • Явления - указаны атмосферные явления, наблюдавшиеся в срок или в последний час перед сроком; фигурными скобками обозначены явления, наблюдавшиеся между сроками (за 1-3 часа до срока); квадратными скобками обозначены град или гололедные отложения с указанием их диаметра в мм.
  • Облачность - указаны через наклонную черту общая и нижняя облачность в баллах и высота нижней границы облаков в метрах; квадратными скобками обозначены формы облаков: Ci - перистые, Cs - перисто-слоистые, Cc - перисто-кучевые, Ac - высококучевые, As - высокослоистые, Sc - слоисто-кучевые, Ns - слоисто-дождевые, Cu - кучевые, Cb - кучево-дождевые. Подробнее классификацию облаков см. в Атласе облаков (PDF).
  • T - Температура воздуха - температура, измеренная на высоте 2 м над землей.
  • Td - Температура точки росы - температура, при понижении до которой содержащийся в воздухе водяной пар достигнет насыщения.
  • f - Относительная влажность воздуха - влажноcть воздуха, измеренная на высоте 2 м над землей.
  • Te - Эффективная температура - температура, которую ощущает одетый по сезону человек в тени. Характеристика душности погоды. При расчете учитывается влияние влажности воздуха и скорости ветра на теплоощущения человека.
  • Tes - Эффективная температура на солнце - температура, которую ощущает человек, с поправкой на солнечный нагрев. Характеристика знойности погоды. Зависит от высоты солнца над горизонтом, облачности и скорости ветра. Ночью, в пасмурную погоду, а также при ветре 12 м/с и более поправка равна нулю.
  • P - Атмосферное давление - приведенное к уровню моря атмосферное давление.
  • Po - Атмосферное давление - измеренное на уровне метеостанции атмосферное давление.
  • Tmin - Минимальная температура - минимум температуры воздуха на высоте 2 м над землей.
  • Tmax - Максимальная температура - максимум температуры воздуха на высоте 2 м над землей.
  • R - Количество осадков - Количество выпавших осадков за период времени, мм. При наведении курсора мыши на число - период времени, за который выпало указанное количество осадков.
  • R24 - Количество осадков - Количество выпавших осадков за 24 часа, мм.
  • S - Снежный покров - Высота снежного покрова, см. При наведении курсора мыши на число - состояние снежного покрова и степень покрытия местности в баллах.